Terug naar catalogus

FENGYUN 1C DEB

ActiefSSO
NORAD 31225·DEBRIS·🇨🇳 China

Gelanceerd May 10, 1999 vanaf Taiyuan Satellite Launch Center

Loading…

Volgende Passages (komende 24 uur)

TLE

VersSource: Space-Track

Epoch: Sep 13, 2026, 04:03 UTC

1 31225U 99025BLF 26256.16942220  .00001700  00000-0  80290-3 0  9995
2 31225  98.9768 337.8620 0085370 288.1792 100.7378 14.19276817997132

Volg FENGYUN 1C DEB in realtime met AllMySat

Download on the App Store